sat.trackr.live / text

‹ back to catalog

FLOCK 4H-32

NORAD 66735 · 2025-276BX

PAYLOAD ACTIVE UNKNOWN

§ Identity

Operator
Country
US
Launch date
2025-11-28
Launch site
AFWTR
Launch vehicle
Mass (kg)
RCS (m²)

Purposes: earth_obs

External: N2YO · Heavens-Above · Gunter

§ Orbital elements

Epoch: 2026-05-25T04:18:15.669792Z

Period
94.77 min
Inclination
97.4229°
Eccentricity
0.0006357
Mean motion
15.19442204 rev/d
Perigee alt
503.1 km
Apogee alt
511.9 km
Semi-major
6,885.7 km
B*
2.6685e-4
RAAN
219.1129°
Arg perigee
91.3179°
Mean anomaly
268.8784°
Rev number
2,692

§ Raw data

FLOCK 4H-321 66735U 25276BX  26145.17934803  .00005591  00000+0  26685-3 0  99912 66735  97.4229 219.1129 0006357  91.3179 268.8784 15.19442204 26922

JSON: /api/v1/satellites/66735 · /tle

For live sub-satellite position, see the globe view (requires WebGL).

§ Visibility from observer

Set your observer location to see the next 7 days of passes ≥ 10°. The values pass through the URL so the page stays shareable.

No JS? Fill the form by hand. The geolocation button needs JavaScript.